Location: Brede
(50.9167°N, 0.6000°E)
Time: 01:38:46
(UTC+00:00)

Cosmos 1461 - Pass Details

Date: 08 August 2020
Orbit: 500 x 665 km, 65.0° (Epoch: 27 September)

Event Time Altitude Azimuth Distance (km) Brightness Sun altitude
Exits shadow 03:28:54 13° 237° (WSW) 1,771 4.7 -9.4°
Maximum altitude 03:32:49 59° 316° (NW) 716 3.4 -9.0°
Drops below altitude 10° 03:37:22 10° 36° (NE) 2,035 7.2 -8.4°
Sets 03:39:46 0° 40° (NE) 2,969 8.6 -8.1°
